User: anonymous   Login
Location: Baumgartsau
(48.4586°N, 14.0864°E)
Time: 20:36:35
(UTC+00:00)
Language:

Cosmos 2100 Rocket - Orbit

View from above orbital plane
View from above orbital plane
View from above satellite
View from above satellite

Ground track
Ground track

The orbit data is extracted from the following two-line orbital elements,

1 20805U 90083B   20184.92187907 +.00000056 +00000-0 +41318-4 0  9995
2 20805 082.9373 315.5122 0031056 165.7280 313.9200 13.75906053496008
Epoch (UTC): 02 July 2020 22:07:30
Eccentricity: 0.0031056
inclination: 82.9373°
perigee height: 955 km
apogee height: 1001 km
right ascension of ascending node: 315.5122°
argument of perigee: 165.7280°
revolutions per day: 13.75906053
mean anomaly at epoch: 313.9200°
orbit number at epoch: 49600

The dashed part of the orbit path shows where the satellite is in the earth's shadow,  

DLR